Meteo Giornale » Osservazioni meteo Repubblica Ceca » Karlovy Vary

ore: 01:00 - Osservazioni Meteo Karlovy Vary
Lat. 50° 12' N Lon. 12° 55' E Alt. 603 metri s.l.m.

coperto Europe/Prague

14 °C

Coperto

Temp. 24 Ore

6 °C

19 °C

Ovest

14.8 Km/h

Dew point 8 °C

Umidità 67 %

Visibilità  10 Km

Il sole sorge alle ore 06:56

Il sole tramonta alle ore 19:04

Data e Ora Cielo e Fenomeni T °C DP °C Um. % Pres. hPa Vis. km Vento km/h
Oggi h: 01:00 coperto Coperto 14 8 67 1015 10 O 14.8
Ieri h: 23:00 molto_nuvoloso Molto Nuvoloso 15 6 54 1014 10 O 16.7
Ieri h: 22:00 sereno Sereno 15 6 54 1014 10 O/SO 18.5
Ieri h: 20:30 sereno Sereno 16 6 51 1014 10 O/SO 13
Ieri h: 20:00 sereno Sereno 16 7 55 1014 10 O/SO 9.3
Ieri h: 19:30 sereno Sereno 15 7 58 1014 10 SO 7.4
Ieri h: 19:00 sereno Sereno 16 7 55 1015 10 O/SO 11.1
Ieri h: 18:30 sereno Sereno 17 7 51 1015 10 O/SO 13
Ieri h: 18:00 sereno Sereno 18 6 45 1016 10 O/SO 14.8
Ieri h: 17:30 sereno Sereno 18 6 45 1016 10 O/SO 18.5
Ieri h: 16:30 sereno Sereno 18 8 51 1016 10 O/SO 16.7
Ieri h: 16:00 sereno Sereno 19 8 48 1017 10 O/SO 18.5
Ieri h: 15:30 sereno Sereno 19 8 48 1017 10 O/SO 14.8
Ieri h: 15:00 sereno Sereno 18 8 51 1018 10 O 14.8
Ieri h: 14:30 sereno Sereno 18 8 51 1018 10 O 18.5
Ieri h: 14:00 sereno Sereno 18 8 51 1019 10 O 22.2
Ieri h: 13:30 sereno Sereno 17 8 55 1019 10 O 18.5
Ieri h: 13:00 sereno Sereno 17 8 55 1019 10 O 16.7
Ieri h: 12:30 sereno Sereno 16 9 63 1020 10 O 14.8
Ieri h: 12:00 sereno Sereno 15 8 62 1020 10 O 16.7
Ieri h: 11:00 sereno Sereno 13 8 71 1021 10 O 14.8
Ieri h: 10:30 sereno Sereno 11 8 81 1021 10 O 14.8
Ieri h: 10:00 poco_nuvoloso Poco Nuvoloso 9 8 93 1022 10 O/NO 14.8
Ieri h: 09:43 poco_nuvoloso Poco Nuvoloso 9 8 93 1022 10 O/NO 13
Ieri h: 09:30 nebbia Banco di Nebbia 9 7 87 1022 2 O/NO 13
Ieri h: 09:23 nebbia Banco di Nebbia 9 7 87 1022 1 O/NO 13
Ieri h: 09:00 nebbia Banco di Nebbia 8 7 93 1022 2 N 5.5
Ieri h: 08:50 nebbia Banco di Nebbia 8 7 93 1022 2 N 3.7
Ieri h: 08:38 foschia Foschia 7 7 100 1022 1 N 1.8
Ieri h: 08:30 nebbia Nebbia 7 7 100 1022 0.8 N 3.7
Ieri h: 08:13 nebbia Nebbia 7 6 93 1022 0.5 N 0
Ieri h: 08:00 nebbia Nebbia 6 5 93 1022 0.25 N 1.8
Ieri h: 07:00 nebbia Nebbia 6 5 93 1022 0.4 N 3.7
Ieri h: 06:44 nebbia Nebbia 7 6 93 1022 0.8 N 3.7
Ieri h: 05:00 sereno Sereno 8 7 93 1023 10 O 9.3
Ieri h: 04:00 sereno Sereno 8 7 93 1023 10 N 5.5
Ieri h: 03:00 sereno Sereno 9 7 87 1024 10 N 5.5